Simultaneous Nadir Overpasses (SNOs) Predictions

Prediction of SNOs between GOES-15 and METOP-A Satellite Orbit:

Table of predicted SNOs for the next 14.0 days since TLE Epoch: 1/25/2013
Index Date Time (GOES-15) GOES-15 Lat,Lon METOP-A Lat,Lon Distance(km) Time Diff (sec)
1 01/26/2013 06:09:29 -0.01,-134.52 0.89,-130.55 453.25 80
2 01/27/2013 18:28:20 0.02,-134.48 0.15,-135.10 70.87 80
3 01/28/2013 18:10:19 0.02,-134.43 -0.92,-130.10 492.55 80
4 01/30/2013 06:29:19 -0.03,-134.31 -0.11,-134.70 44.30 80
5 02/01/2013 18:24:50 0.03,-134.19 0.07,-134.26 8.43 80
6 02/04/2013 06:23:12 -0.03,-134.01 0.01,-133.87 15.73 80
7 02/06/2013 18:24:04 0.03,-133.86 -0.04,-133.44 48.09 80
8 02/08/2013 06:43:05 -0.04,-133.74 -1.01,-138.04 490.35 80
